{"data":{"norad_id":67715,"epoch":"2026-09-19T05:54:04.277376Z","epoch_age_seconds":174808,"freshness":"STALE","line1":"1 67715U 26025Y   26262.24588284  .00017390  00000+0  53959-3 0  9993","line2":"2 67715  97.2823  12.1666 0001300  77.2337 282.9051 15.33454450 35676","mean_motion":15.3345445,"eccentricity":0.00013,"inclination_deg":97.2823,"raan_deg":12.1666,"arg_perigee_deg":77.2337,"mean_anomaly_deg":282.9051,"bstar":0.00053959,"rev_number":3567,"period_min":93.905625954524,"perigee_km":464.62538330361,"apogee_km":466.40473283871,"semimajor_km":6843.6520580712,"source":"CELESTRAK","updated_at":"2026-09-20T09:00:43.655639Z"}}